Time,TemperatureF,DewpointF,PressureIn,WindDirection,WindDirectionDegrees,WindSpeedMPH,WindSpeedGustMPH,Humidity,HourlyPrecipIn,Conditions,Clouds,dailyrainin,SoftwareType,DateUTC
2013-02-17 00:01:00,15.0,7.0,30.20,North,9,0.0,-999.0,69,-99.99,,,0.00,weatherlink.com 1.10,2013-02-17 06:01:00,
2013-02-17 00:17:00,14.6,6.0,30.21,North,9,0.0,-999.0,69,-99.99,,,0.00,weatherlink.com 1.10,2013-02-17 06:17:00,
2013-02-17 00:32:00,14.3,6.0,30.21,North,9,0.0,-999.0,70,-99.99,,,0.00,weatherlink.com 1.10,2013-02-17 06:32:00,
2013-02-17 00:47:00,13.9,6.0,30.21,North,9,0.0,-999.0,71,-99.99,,,0.00,weatherlink.com 1.10,2013-02-17 06:47:00,
2013-02-17 01:01:00,13.7,6.0,30.21,North,9,0.0,-999.0,71,-99.99,,,0.00,weatherlink.com 1.10,2013-02-17 07:01:00,
2013-02-17 01:16:00,13.5,6.0,30.20,North,9,0.0,-999.0,71,-99.99,,,0.00,weatherlink.com 1.10,2013-02-17 07:16:00,
2013-02-17 01:31:00,13.3,6.0,30.20,North,9,0.0,-999.0,72,-99.99,,,0.00,weatherlink.com 1.10,2013-02-17 07:31:00,
2013-02-17 01:46:00,13.1,5.0,30.21,North,9,0.0,-999.0,71,-99.99,,,0.00,weatherlink.com 1.10,2013-02-17 07:46:00,
2013-02-17 02:02:00,12.9,5.0,30.21,North,9,0.0,-999.0,72,-99.99,,,0.00,weatherlink.com 1.10,2013-02-17 08:02:00,
2013-02-17 02:17:00,12.8,6.0,30.21,North,9,0.0,-999.0,73,-99.99,,,0.00,weatherlink.com 1.10,2013-02-17 08:17:00,
2013-02-17 02:32:00,12.7,6.0,30.21,North,9,0.0,-999.0,74,-99.99,,,0.00,weatherlink.com 1.10,2013-02-17 08:32:00,
2013-02-17 02:47:00,12.5,6.0,30.21,North,9,0.0,-999.0,75,-99.99,,,0.00,weatherlink.com 1.10,2013-02-17 08:47:00,
2013-02-17 03:02:00,12.3,6.0,30.21,North,9,0.0,-999.0,75,-99.99,,,0.00,weatherlink.com 1.10,2013-02-17 09:02:00,
2013-02-17 03:17:00,12.1,6.0,30.20,North,9,0.0,-999.0,76,-99.99,,,0.00,weatherlink.com 1.10,2013-02-17 09:17:00,
2013-02-17 03:33:00,11.9,6.0,30.20,North,9,0.0,-999.0,76,-99.99,,,0.00,weatherlink.com 1.10,2013-02-17 09:33:00,
2013-02-17 03:48:00,11.6,6.0,30.21,North,9,0.0,-999.0,77,-99.99,,,0.00,weatherlink.com 1.10,2013-02-17 09:48:00,
2013-02-17 04:03:00,11.4,6.0,30.21,North,9,0.0,-999.0,77,-99.99,,,0.00,weatherlink.com 1.10,2013-02-17 10:03:00,
2013-02-17 04:17:00,11.1,5.0,30.21,North,9,0.0,-999.0,77,-99.99,,,0.00,weatherlink.com 1.10,2013-02-17 10:17:00,
2013-02-17 04:32:00,11.0,5.0,30.22,North,9,0.0,-999.0,78,-99.99,,,0.00,weatherlink.com 1.10,2013-02-17 10:32:00,
2013-02-17 04:47:00,10.9,5.0,30.22,North,9,0.0,-999.0,78,-99.99,,,0.00,weatherlink.com 1.10,2013-02-17 10:47:00,
2013-02-17 05:02:00,10.5,5.0,30.23,North,9,0.0,-999.0,78,-99.99,,,0.00,weatherlink.com 1.10,2013-02-17 11:02:00,
2013-02-17 05:17:00,10.1,5.0,30.23,North,9,0.0,-999.0,79,-99.99,,,0.00,weatherlink.com 1.10,2013-02-17 11:17:00,
2013-02-17 05:32:00,9.9,5.0,30.24,North,9,0.0,-999.0,80,-99.99,,,0.00,weatherlink.com 1.10,2013-02-17 11:32:00,
2013-02-17 05:47:00,9.9,5.0,30.24,North,9,0.0,-999.0,80,-99.99,,,0.00,weatherlink.com 1.10,2013-02-17 11:47:00,
2013-02-17 06:03:00,9.7,5.0,30.24,North,9,0.0,-999.0,81,-99.99,,,0.00,weatherlink.com 1.10,2013-02-17 12:03:00,
2013-02-17 06:18:00,9.6,5.0,30.24,North,9,0.0,-999.0,81,-99.99,,,0.00,weatherlink.com 1.10,2013-02-17 12:18:00,
2013-02-17 06:33:00,9.7,5.0,30.24,North,9,0.0,-999.0,81,-99.99,,,0.00,weatherlink.com 1.10,2013-02-17 12:33:00,
2013-02-17 06:48:00,9.9,5.0,30.24,North,9,0.0,-999.0,81,-99.99,,,0.00,weatherlink.com 1.10,2013-02-17 12:48:00,
2013-02-17 07:02:00,10.0,5.0,30.24,North,9,0.0,-999.0,81,-99.99,,,0.00,weatherlink.com 1.10,2013-02-17 13:02:00,
2013-02-17 07:17:00,10.9,6.0,30.25,North,9,0.0,-999.0,81,-99.99,,,0.00,weatherlink.com 1.10,2013-02-17 13:17:00,
2013-02-17 07:32:00,12.3,7.0,30.25,North,9,0.0,-999.0,80,-99.99,,,0.00,weatherlink.com 1.10,2013-02-17 13:32:00,
2013-02-17 07:47:00,13.8,7.0,30.25,North,9,0.0,-999.0,74,-99.99,,,0.00,weatherlink.com 1.10,2013-02-17 13:47:00,
2013-02-17 08:02:00,14.9,7.0,30.25,North,9,0.0,-999.0,70,-99.99,,,0.00,weatherlink.com 1.10,2013-02-17 14:02:00,
2013-02-17 08:17:00,15.9,7.0,30.25,North,9,0.0,-999.0,68,-99.99,,,0.00,weatherlink.com 1.10,2013-02-17 14:17:00,
2013-02-17 08:33:00,17.1,5.0,30.26,North,9,0.0,-999.0,60,-99.99,,,0.00,weatherlink.com 1.10,2013-02-17 14:33:00,
2013-02-17 08:48:00,18.4,5.0,30.26,North,9,0.0,-999.0,56,-99.99,,,0.00,weatherlink.com 1.10,2013-02-17 14:48:00,
2013-02-17 09:03:00,19.0,4.0,30.26,SW,216,3.0,-999.0,52,-99.99,,,0.00,weatherlink.com 1.10,2013-02-17 15:03:00,
2013-02-17 09:18:00,18.7,5.0,30.25,SSE,150,3.0,-999.0,56,-99.99,,,0.00,weatherlink.com 1.10,2013-02-17 15:18:00,
2013-02-17 09:33:00,19.1,5.0,30.25,SE,144,0.0,-999.0,55,-99.99,,,0.00,weatherlink.com 1.10,2013-02-17 15:33:00,
2013-02-17 09:48:00,19.3,5.0,30.26,SSE,153,1.0,-999.0,55,-99.99,,,0.00,weatherlink.com 1.10,2013-02-17 15:48:00,
2013-02-17 10:03:00,19.8,5.0,30.26,SE,141,0.0,-999.0,52,-99.99,,,0.00,weatherlink.com 1.10,2013-02-17 16:03:00,
2013-02-17 10:18:00,20.5,7.0,30.26,SSE,157,1.0,-999.0,57,-99.99,,,0.00,weatherlink.com 1.10,2013-02-17 16:18:00,
2013-02-17 10:34:00,20.8,7.0,30.26,SSE,164,0.0,-999.0,56,-99.99,,,0.00,weatherlink.com 1.10,2013-02-17 16:34:00,
2013-02-17 10:49:00,21.6,7.0,30.26,SSW,211,0.0,-999.0,54,-99.99,,,0.00,weatherlink.com 1.10,2013-02-17 16:49:00,
2013-02-17 11:03:00,21.6,6.0,30.26,SW,219,4.0,-999.0,52,-99.99,,,0.00,weatherlink.com 1.10,2013-02-17 17:03:00,
2013-02-17 11:18:00,23.2,8.0,30.26,South,190,3.0,-999.0,53,-99.99,,,0.00,weatherlink.com 1.10,2013-02-17 17:18:00,
2013-02-17 11:34:00,23.9,8.0,30.25,SSW,201,3.0,-999.0,52,-99.99,,,0.00,weatherlink.com 1.10,2013-02-17 17:34:00,
2013-02-17 11:49:00,24.8,9.0,30.25,SSE,164,3.0,-999.0,52,-99.99,,,0.00,weatherlink.com 1.10,2013-02-17 17:49:00,
2013-02-17 12:03:00,25.2,8.0,30.24,South,188,4.0,-999.0,48,-99.99,,,0.00,weatherlink.com 1.10,2013-02-17 18:03:00,
2013-02-17 12:18:00,26.0,8.0,30.24,South,177,3.0,-999.0,47,-99.99,,,0.00,weatherlink.com 1.10,2013-02-17 18:18:00,
2013-02-17 12:33:00,26.7,10.0,30.24,WSW,238,0.0,-999.0,49,-99.99,,,0.00,weatherlink.com 1.10,2013-02-17 18:33:00,
2013-02-17 12:48:00,27.8,7.0,30.23,SSW,209,4.0,-999.0,42,-99.99,,,0.00,weatherlink.com 1.10,2013-02-17 18:48:00,
2013-02-17 13:04:00,28.4,10.0,30.22,South,186,4.0,-999.0,46,-99.99,,,0.00,weatherlink.com 1.10,2013-02-17 19:04:00,
2013-02-17 13:19:00,29.2,11.0,30.22,SSW,211,4.0,-999.0,46,-99.99,,,0.00,weatherlink.com 1.10,2013-02-17 19:19:00,
2013-02-17 13:34:00,29.7,12.0,30.21,South,170,0.0,-999.0,47,-99.99,,,0.00,weatherlink.com 1.10,2013-02-17 19:34:00,
2013-02-17 13:49:00,30.9,13.0,30.20,SW,225,0.0,-999.0,47,-99.99,,,0.00,weatherlink.com 1.10,2013-02-17 19:49:00,
2013-02-17 14:04:00,30.6,11.0,30.19,South,188,0.0,-999.0,44,-99.99,,,0.00,weatherlink.com 1.10,2013-02-17 20:04:00,
2013-02-17 14:19:00,31.0,12.0,30.19,South,174,0.0,-999.0,46,-99.99,,,0.00,weatherlink.com 1.10,2013-02-17 20:19:00,
2013-02-17 14:35:00,31.5,14.0,30.19,SW,215,1.0,-999.0,49,-99.99,,,0.00,weatherlink.com 1.10,2013-02-17 20:35:00,
2013-02-17 14:50:00,31.7,15.0,30.18,SSE,161,3.0,-999.0,50,-99.99,,,0.00,weatherlink.com 1.10,2013-02-17 20:50:00,
2013-02-17 15:04:00,32.5,16.0,30.18,SSW,192,2.0,-999.0,50,-99.99,,,0.00,weatherlink.com 1.10,2013-02-17 21:04:00,
2013-02-17 15:19:00,32.7,16.0,30.17,SW,217,1.0,-999.0,50,-99.99,,,0.00,weatherlink.com 1.10,2013-02-17 21:19:00,
2013-02-17 15:34:00,32.8,16.0,30.17,SE,142,5.0,-999.0,51,-99.99,,,0.00,weatherlink.com 1.10,2013-02-17 21:34:00,
2013-02-17 15:49:00,32.9,17.0,30.17,SE,135,4.0,-999.0,52,-99.99,,,0.00,weatherlink.com 1.10,2013-02-17 21:49:00,
2013-02-17 16:05:00,32.6,17.0,30.16,SE,143,4.0,-999.0,53,-99.99,,,0.00,weatherlink.com 1.10,2013-02-17 22:05:00,
2013-02-17 16:20:00,32.4,18.0,30.15,SE,142,2.0,-999.0,55,-99.99,,,0.00,weatherlink.com 1.10,2013-02-17 22:20:00,
2013-02-17 16:35:00,32.3,18.0,30.16,SSE,163,2.0,-999.0,56,-99.99,,,0.00,weatherlink.com 1.10,2013-02-17 22:35:00,
2013-02-17 16:50:00,32.3,18.0,30.15,SSE,156,3.0,-999.0,57,-99.99,,,0.00,weatherlink.com 1.10,2013-02-17 22:50:00,
2013-02-17 17:04:00,32.2,20.0,30.15,SE,138,2.0,-999.0,60,-99.99,,,0.00,weatherlink.com 1.10,2013-02-17 23:04:00,
2013-02-17 17:19:00,31.7,20.0,30.15,SE,144,4.0,-999.0,61,-99.99,,,0.00,weatherlink.com 1.10,2013-02-17 23:19:00,
2013-02-17 17:35:00,31.2,20.0,30.14,SE,145,1.0,-999.0,64,-99.99,,,0.00,weatherlink.com 1.10,2013-02-17 23:35:00,
2013-02-17 17:50:00,30.8,20.0,30.14,SE,143,2.0,-999.0,65,-99.99,,,0.00,weatherlink.com 1.10,2013-02-17 23:50:00,
2013-02-17 18:04:00,30.6,20.0,30.13,SE,134,4.0,-999.0,66,-99.99,,,0.00,weatherlink.com 1.10,2013-02-18 00:04:00,
2013-02-17 18:19:00,30.2,21.0,30.13,SE,141,4.0,-999.0,69,-99.99,,,0.00,weatherlink.com 1.10,2013-02-18 00:19:00,
2013-02-17 18:34:00,29.9,21.0,30.13,SE,142,3.0,-999.0,69,-99.99,,,0.00,weatherlink.com 1.10,2013-02-18 00:34:00,
2013-02-17 18:49:00,29.7,21.0,30.12,SE,140,3.0,-999.0,69,-99.99,,,0.00,weatherlink.com 1.10,2013-02-18 00:49:00,
2013-02-17 19:04:00,29.3,21.0,30.13,SE,136,3.0,-999.0,71,-99.99,,,0.00,weatherlink.com 1.10,2013-02-18 01:04:00,
2013-02-17 19:19:00,29.2,21.0,30.13,SE,132,3.0,-999.0,71,-99.99,,,0.00,weatherlink.com 1.10,2013-02-18 01:19:00,
2013-02-17 19:34:00,29.2,21.0,30.13,SE,136,5.0,-999.0,70,-99.99,,,0.00,weatherlink.com 1.10,2013-02-18 01:34:00,
2013-02-17 19:49:00,29.0,21.0,30.12,SE,137,6.0,-999.0,71,-99.99,,,0.00,weatherlink.com 1.10,2013-02-18 01:49:00,
2013-02-17 20:05:00,29.1,20.0,30.12,SE,144,8.0,-999.0,70,-99.99,,,0.00,weatherlink.com 1.10,2013-02-18 02:05:00,
2013-02-17 20:20:00,28.9,20.0,30.12,SSE,148,5.0,-999.0,70,-99.99,,,0.00,weatherlink.com 1.10,2013-02-18 02:20:00,
2013-02-17 20:35:00,28.7,21.0,30.12,SE,134,5.0,-999.0,72,-99.99,,,0.00,weatherlink.com 1.10,2013-02-18 02:35:00,
2013-02-17 20:50:00,28.5,21.0,30.11,SE,128,3.0,-999.0,72,-99.99,,,0.00,weatherlink.com 1.10,2013-02-18 02:50:00,
2013-02-17 21:05:00,28.5,21.0,30.11,SE,138,7.0,-999.0,72,-99.99,,,0.00,weatherlink.com 1.10,2013-02-18 03:05:00,
2013-02-17 21:20:00,28.9,20.0,30.12,SE,137,7.0,-999.0,70,-99.99,,,0.00,weatherlink.com 1.10,2013-02-18 03:20:00,
2013-02-17 21:35:00,29.1,20.0,30.11,SE,144,7.0,-999.0,70,-99.99,,,0.00,weatherlink.com 1.10,2013-02-18 03:35:00,
2013-02-17 21:50:00,28.8,20.0,30.11,SE,134,5.0,-999.0,71,-99.99,,,0.00,weatherlink.com 1.10,2013-02-18 03:50:00,
2013-02-17 22:05:00,28.8,20.0,30.11,SSE,155,9.0,-999.0,71,-99.99,,,0.00,weatherlink.com 1.10,2013-02-18 04:05:00,
2013-02-17 22:20:00,28.8,20.0,30.10,SE,137,7.0,-999.0,70,-99.99,,,0.00,weatherlink.com 1.10,2013-02-18 04:20:00,
2013-02-17 22:35:00,28.8,20.0,30.09,SE,143,6.0,-999.0,70,-99.99,,,0.00,weatherlink.com 1.10,2013-02-18 04:35:00,
2013-02-17 22:50:00,28.6,20.0,30.09,SE,140,6.0,-999.0,71,-99.99,,,0.00,weatherlink.com 1.10,2013-02-18 04:50:00,
2013-02-17 23:06:00,28.6,20.0,30.08,SE,140,9.0,-999.0,71,-99.99,,,0.00,weatherlink.com 1.10,2013-02-18 05:06:00,
2013-02-17 23:21:00,28.5,21.0,30.07,SE,144,6.0,-999.0,72,-99.99,,,0.00,weatherlink.com 1.10,2013-02-18 05:21:00,
2013-02-17 23:36:00,28.5,21.0,30.07,SSE,157,4.0,-999.0,72,-99.99,,,0.00,weatherlink.com 1.10,2013-02-18 05:36:00,
2013-02-17 23:51:00,28.5,20.0,30.06,SSE,149,6.0,-999.0,71,-99.99,,,0.00,weatherlink.com 1.10,2013-02-18 05:51:00,